[[{"header":{"parameterUnit":"m.s-1","parameterCategory":1,"la1":30.2991,"la2":30.254,"lo1":-89.0895,"lo2":-89.0444,"dy":0.0017,"dx":0.0017,"nx":28,"ny":28,"refTime":"2023-09-14T21:00:00:Z","depth":0,"parameterNumber":2,"parameterNumberName":"U-component_of_WINDS"},"data":[0,0,0,0,0,0,0,0,0,0,0,0,0,0,0,0,0,0,0,0,0,0,0,0,0,0,0,0,0,0,0,0,0,0,0,0,0,0,0,0,0,0,0,0,0,0,0,0,0,0,0,0,0,0,0,0,0,0,-0.8169,-0.8169,0,-0.818,-0.818,-0.818,-0.8144,-0.8143,-0.8141,-0.814,-0.8152,-0.8154,-0.8155,0,0,0,0,0,0,0,0,0,0,0,0,0,-0.8115,-0.8116,-0.8169,-0.8169,-0.8169,-0.818,-0.818,-0.818,-0.8144,-0.8143,-0.8141,-0.814,-0.8152,-0.8154,-0.8155,0,0,0,0,0,0,0,0,0,0,0,0,0,-0.8134,-0.8117,-0.8168,-0.8152,-0.8151,-0.818,-0.818,-0.818,-0.8144,-0.8143,-0.8141,-0.8139,-0.8151,-0.8153,-0.8155,-0.8201,0,0,-0.8162,-0.8162,0,0,0,0,0,0,0,0,-0.8133,-0.8136,-0.8154,-0.8153,-0.8152,-0.8159,-0.8166,-0.8187,-0.8145,-0.8147,-0.814,-0.8138,-0.8156,-0.8157,-0.8163,-0.8202,-0.8202,-0.8162,-0.8163,-0.8164,-0.8164,0,0,0,0,0,0,0,-0.8131,-0.8135,-0.8173,-0.8155,-0.8153,-0.8144,-0.8145,-0.817,-0.816,-0.8146,-0.8144,-0.8146,-0.8155,-0.8161,-0.8163,-0.8202,-0.8162,-0.8164,-0.8165,-0.8166,-0.8279,-0.828,0,0,0,0,0,0,-0.8132,-0.8134,-0.8173,-0.8173,-0.8138,-0.8146,-0.8147,-0.8158,-0.816,-0.8159,-0.8147,-0.8144,-0.8159,-0.8161,-0.8164,-0.8217,-0.8164,-0.8166,-0.8167,-0.8277,-0.8279,-0.8281,0,0,0,0,0,0,-0.8131,-0.8136,-0.8172,-0.8153,-0.8157,-0.8149,-0.8162,-0.8159,-0.8166,-0.8161,-0.8159,-0.8155,-0.8158,-0.8161,-0.8192,-0.8217,-0.8167,-0.8169,-0.8275,-0.8278,-0.828,-0.8324,0,0,0,0,0,0,-0.813,-0.8136,-0.8153,-0.8154,-0.8158,-0.8201,-0.8163,-0.8161,-0.8169,-0.8165,-0.8168,-0.8167,-0.8156,-0.8189,-0.8194,-0.8219,-0.817,-0.8273,-0.8276,-0.8279,-0.8321,-0.8328,-0.8335,0,0,0,0,0,-0.8128,-0.8165,-0.8154,-0.8159,-0.818,-0.8202,-0.8205,-0.8192,-0.8171,-0.8189,-0.8185,-0.8167,-0.8213,-0.8193,-0.8198,-0.8224,-0.8271,-0.8275,-0.8279,-0.8317,-0.8327,-0.8335,0,0,0,0,0,0,-0.8168,-0.8165,-0.8153,-0.8191,-0.8197,-0.8196,-0.8217,-0.8202,-0.8214,-0.821,-0.8194,-0.8195,-0.8229,-0.8229,-0.8206,-0.8268,-0.8239,-0.8244,-0.8266,-0.8275,-0.8282,-0.8281,-0.8172,0,0,0,0,0,-0.8182,-0.82,-0.8196,-0.8231,-0.8234,-0.8226,-0.8235,-0.8225,-0.823,-0.8232,-0.8231,-0.8237,-0.8253,-0.8264,-0.8279,-0.8321,-0.832,-0.8341,-0.8348,-0.8354,-0.8358,-0.838,-0.8389,-0.8294,-0.8294,-0.8294,0,0,-0.8209,-0.821,-0.8223,-0.8239,-0.8242,-0.8262,-0.8228,-0.825,-0.8264,-0.8236,-0.8265,-0.8265,-0.827,-0.8307,-0.8323,-0.8308,-0.8384,-0.8359,-0.8363,-0.8365,-0.8385,-0.8394,-0.8402,-0.8297,-0.8296,-0.8296,0,0,-0.827,-0.8272,-0.8301,-0.8305,-0.831,-0.8304,-0.8311,-0.8312,-0.8311,-0.834,-0.8319,-0.8335,-0.8363,-0.8368,-0.8374,-0.8436,-0.8419,-0.8442,-0.8478,-0.85,-0.8507,-0.8514,-0.8535,-0.8543,-0.8446,-0.8446,-0.8446,0,-0.8303,-0.8332,-0.8318,-0.8341,-0.8349,-0.8324,-0.8353,-0.8357,-0.8367,-0.8373,-0.8356,-0.8391,-0.8393,-0.843,-0.8445,-0.8451,-0.8458,-0.8441,-0.8507,-0.8514,-0.8519,-0.854,-0.8548,-0.8449,-0.8449,-0.8448,-0.8448,0,-0.8373,-0.8393,-0.8416,-0.8426,-0.8436,-0.8462,-0.8452,-0.8464,-0.8453,-0.8448,-0.8478,-0.848,-0.8494,-0.8502,-0.8491,-0.8538,-0.8528,-0.851,-0.848,-0.8531,-0.855,-0.8558,-0.8453,-0.8452,-0.8451,-0.845,0,0,-0.8459,-0.8461,-0.8469,-0.8473,-0.8477,-0.8492,-0.8517,-0.8531,-0.8542,-0.8549,-0.857,-0.8594,-0.8576,-0.8583,-0.8573,-0.8592,-0.8641,-0.8571,-0.8571,-0.8584,-0.8691,-0.8705,-0.8714,-0.863,-0.8631,-0.8632,-0.8691,0,-0.8518,-0.856,-0.8548,-0.8591,-0.8609,-0.8585,-0.8607,-0.8612,-0.8608,-0.8623,-0.8619,-0.8637,-0.8613,-0.8617,-0.8634,-0.8631,-0.8662,-0.8627,-0.8648,-0.8649,-0.8647,-0.8724,-0.8739,-0.8794,-0.8698,-0.8699,-0.87,0,-0.8592,-0.8603,-0.8647,-0.8648,-0.8655,-0.8675,-0.8686,-0.8701,-0.8706,-0.8702,-0.871,-0.8695,-0.872,-0.869,-0.8723,-0.87,-0.8708,-0.8707,-0.8709,-0.871,-0.8678,-0.8727,-0.8812,-0.882,-0.8712,-0.8711,-0.871,0,-0.865,-0.8675,-0.8705,-0.8709,-0.8711,-0.8725,-0.8727,-0.873,-0.8739,-0.8749,-0.8755,-0.8767,-0.8774,-0.8785,-0.8774,-0.8754,-0.8809,-0.8779,-0.8806,-0.8806,-0.8818,-0.8818,-0.8905,-0.8824,-0.8824,-0.8824,-0.8824,0,-0.8717,-0.8745,-0.8731,-0.8749,-0.878,-0.8765,-0.8796,-0.8795,-0.8798,-0.8815,-0.8796,-0.8813,-0.8798,-0.8814,-0.8806,-0.8834,-0.8838,-0.8835,-0.8832,-0.8836,-0.8837,-0.8841,-0.8837,-0.8826,-0.8826,-0.8825,-0.8825,0,-0.8787,-0.8778,-0.8809,-0.8808,-0.8808,-0.8831,-0.883,-0.8847,-0.8842,-0.8864,-0.8869,-0.8861,-0.8878,-0.8869,-0.8887,-0.8881,-0.8918,-0.8911,-0.8916,-0.8914,-0.8942,-0.8939,-0.9035,-0.9046,-0.8959,-0.896,-0.8961,0,-0.883,-0.8851,-0.8852,-0.8862,-0.8865,-0.8882,-0.8891,-0.8877,-0.8887,-0.8895,-0.891,-0.8926,-0.8938,-0.8966,-0.8962,-0.8976,-0.8968,-0.9,-0.897,-0.8973,-0.8968,-0.8966,-0.8968,-0.9006,-0.9007,-0.9008,-0.9009,0,-0.8907,-0.8902,-0.8915,-0.8928,-0.8939,-0.8948,-0.8955,-0.8965,-0.8951,-0.8964,-0.8981,-0.899,-0.9008,-0.9024,-0.9035,-0.9036,-0.9021,-0.9019,-0.9026,-0.903,-0.9032,-0.9031,-0.8933,-0.9016,-0.9016,-0.9015,-0.9015,-0.9014,-0.8964,-0.8981,-0.8985,-0.9001,-0.9005,-0.9012,-0.9028,-0.9025,-0.9039,-0.9052,-0.9044,-0.9064,-0.9068,-0.9082,-0.9085,-0.9101,-0.9088,-0.9098,-0.91,-0.9103,-0.9107,-0.903,-0.9103,-0.9103,-0.9102,-0.9102,-0.9102,0,-0.904,-0.9041,-0.9056,-0.9066,-0.9079,-0.9063,-0.907,-0.9081,-0.9099,-0.9105,-0.9116,-0.9136,-0.9151,-0.9148,-0.9162,-0.9175,-0.9168,-0.9179,-0.9177,-0.9178,-0.9118,-0.911,-0.9184,-0.9184,-0.9184,-0.9184,-0.9184,-0.9184,-0.9081,-0.9109,-0.9104,-0.9134,-0.9135,-0.9155,-0.916,-0.9167,-0.9171,-0.9194,-0.9206,-0.9204,-0.9206,-0.9219,-0.9232,-0.9231,-0.9236,-0.925,-0.9246,-0.919,-0.9182,-0.9174,-0.9167,-0.9252,-0.9252,-0.9305,-0.9305,-0.9306]},{"header":{"parameterUnit":"m.s-1","parameterCategory":1,"la1":30.2991,"la2":30.254,"lo1":-89.0895,"lo2":-89.0444,"dy":0.0017,"dx":0.0017,"nx":28,"ny":28,"refTime":"2023-09-14T21:00:00:Z","depth":0,"parameterNumber":3,"parameterNumberName":"V-component_of_WINDS"},"data":[0,0,0,0,0,0,0,0,0,0,0,0,0,0,0,0,0,0,0,0,0,0,0,0,0,0,0,0,0,0,0,0,0,0,0,0,0,0,0,0,0,0,0,0,0,0,0,0,0,0,0,0,0,0,0,0,0,0,-0.7075,-0.7075,0,-0.7099,-0.7099,-0.7099,-0.7139,-0.714,-0.7141,-0.7141,-0.7165,-0.7165,-0.7164,0,0,0,0,0,0,0,0,0,0,0,0,0,-0.7063,-0.7063,-0.7075,-0.7075,-0.7076,-0.7099,-0.7099,-0.7099,-0.7139,-0.714,-0.7141,-0.7142,-0.7165,-0.7165,-0.7164,0,0,0,0,0,0,0,0,0,0,0,0,0,-0.7075,-0.7063,-0.7075,-0.7098,-0.7101,-0.7099,-0.7099,-0.71,-0.7139,-0.714,-0.7141,-0.7142,-0.7165,-0.7165,-0.7164,-0.7141,0,0,-0.7164,-0.7164,0,0,0,0,0,0,0,0,-0.7075,-0.7076,-0.7095,-0.7097,-0.7099,-0.7117,-0.7103,-0.7113,-0.7139,-0.7124,-0.7141,-0.7143,-0.7148,-0.7149,-0.7151,-0.7142,-0.7143,-0.7164,-0.7164,-0.7164,-0.7164,0,0,0,0,0,0,0,-0.7074,-0.7075,-0.7084,-0.7095,-0.7098,-0.7107,-0.711,-0.7105,-0.7129,-0.7126,-0.7129,-0.7131,-0.7149,-0.7151,-0.7152,-0.7144,-0.7164,-0.7164,-0.7164,-0.7164,-0.7117,-0.7116,0,0,0,0,0,0,-0.707,-0.7074,-0.7084,-0.7085,-0.709,-0.7106,-0.711,-0.711,-0.713,-0.7134,-0.713,-0.7133,-0.7151,-0.7152,-0.7153,-0.7127,-0.7164,-0.7164,-0.7164,-0.7118,-0.7117,-0.7115,0,0,0,0,0,0,-0.7069,-0.707,-0.7083,-0.708,-0.7083,-0.7106,-0.7106,-0.711,-0.7112,-0.7133,-0.7137,-0.7127,-0.7152,-0.7153,-0.7144,-0.7128,-0.7164,-0.7164,-0.7119,-0.7118,-0.7116,-0.7074,0,0,0,0,0,0,-0.7069,-0.707,-0.7061,-0.708,-0.7083,-0.7073,-0.7105,-0.711,-0.7112,-0.7116,-0.7132,-0.7135,-0.7153,-0.7144,-0.7144,-0.7129,-0.7164,-0.7121,-0.7119,-0.7117,-0.7077,-0.7071,-0.7066,0,0,0,0,0,-0.7068,-0.7049,-0.7061,-0.7062,-0.7073,-0.7072,-0.7074,-0.7095,-0.711,-0.7102,-0.7116,-0.7135,-0.713,-0.7143,-0.7143,-0.7127,-0.7122,-0.7119,-0.7117,-0.708,-0.7072,-0.7066,0,0,0,0,0,0,-0.7027,-0.7051,-0.7065,-0.7051,-0.706,-0.7079,-0.7069,-0.7086,-0.709,-0.7093,-0.7119,-0.7122,-0.7109,-0.7118,-0.7131,-0.7106,-0.7129,-0.7126,-0.7101,-0.7094,-0.7089,-0.7087,-0.7164,0,0,0,0,0,-0.7017,-0.7015,-0.7036,-0.7021,-0.7025,-0.7046,-0.7047,-0.7062,-0.7071,-0.7075,-0.7088,-0.7096,-0.7096,-0.7096,-0.7097,-0.7079,-0.7082,-0.7068,-0.7063,-0.7058,-0.7055,-0.7046,-0.7039,-0.7107,-0.7107,-0.7107,0,0,-0.6995,-0.7008,-0.7005,-0.7013,-0.7022,-0.7019,-0.7049,-0.7044,-0.7042,-0.7074,-0.7066,-0.7076,-0.7087,-0.7072,-0.7067,-0.7079,-0.7038,-0.7055,-0.7051,-0.7051,-0.7042,-0.7036,-0.703,-0.7105,-0.7105,-0.7105,0,0,-0.6953,-0.6963,-0.6951,-0.6959,-0.6971,-0.6986,-0.6983,-0.7,-0.7008,-0.7,-0.7024,-0.7022,-0.7022,-0.7028,-0.7032,-0.6992,-0.701,-0.6992,-0.6963,-0.6953,-0.6948,-0.6943,-0.6929,-0.6923,-0.6989,-0.6989,-0.6989,0,-0.6924,-0.692,-0.6943,-0.6937,-0.694,-0.697,-0.6958,-0.6964,-0.6976,-0.6977,-0.6991,-0.6991,-0.7001,-0.6988,-0.6978,-0.698,-0.6978,-0.699,-0.6947,-0.6943,-0.6939,-0.6925,-0.6919,-0.6987,-0.6987,-0.6987,-0.6987,0,-0.6883,-0.6881,-0.687,-0.6881,-0.6883,-0.6874,-0.6895,-0.6894,-0.6909,-0.6922,-0.6914,-0.6926,-0.693,-0.6929,-0.6943,-0.6918,-0.6925,-0.6943,-0.6966,-0.693,-0.6917,-0.6912,-0.6983,-0.6984,-0.6985,-0.6985,0,0,-0.6816,-0.684,-0.6835,-0.6841,-0.6856,-0.6854,-0.6847,-0.6851,-0.6849,-0.6857,-0.685,-0.685,-0.6866,-0.687,-0.6885,-0.6877,-0.6844,-0.6895,-0.6896,-0.6885,-0.6816,-0.6802,-0.6796,-0.6856,-0.6855,-0.6855,-0.6815,0,-0.6777,-0.6765,-0.6786,-0.6769,-0.6767,-0.6795,-0.6788,-0.6796,-0.6808,-0.6807,-0.682,-0.6819,-0.6841,-0.6843,-0.6836,-0.6849,-0.683,-0.6853,-0.685,-0.6849,-0.6845,-0.6789,-0.6775,-0.6737,-0.681,-0.6809,-0.6809,0,-0.6729,-0.6734,-0.6717,-0.6734,-0.6733,-0.6727,-0.6733,-0.6732,-0.6742,-0.6751,-0.6755,-0.6774,-0.6767,-0.679,-0.6781,-0.6795,-0.6796,-0.6802,-0.6801,-0.6801,-0.6826,-0.6787,-0.6725,-0.6719,-0.6801,-0.6802,-0.6803,0,-0.6681,-0.6683,-0.6673,-0.6677,-0.6696,-0.6691,-0.6698,-0.671,-0.6711,-0.6716,-0.6717,-0.6721,-0.6722,-0.6725,-0.6744,-0.6759,-0.6732,-0.6757,-0.6738,-0.6738,-0.6731,-0.6731,-0.6667,-0.6732,-0.6732,-0.6732,-0.6732,0,-0.6634,-0.6622,-0.6652,-0.6646,-0.6633,-0.6657,-0.6644,-0.6655,-0.6664,-0.666,-0.6685,-0.6681,-0.6706,-0.6705,-0.6719,-0.6709,-0.671,-0.6717,-0.672,-0.6714,-0.6713,-0.6714,-0.6716,-0.6731,-0.6731,-0.6731,-0.6732,0,-0.6577,-0.6597,-0.6588,-0.6607,-0.6611,-0.6601,-0.6617,-0.6612,-0.6625,-0.662,-0.662,-0.6641,-0.664,-0.6659,-0.6663,-0.6673,-0.6655,-0.6664,-0.6652,-0.6654,-0.6634,-0.6636,-0.6569,-0.6561,-0.6631,-0.663,-0.663,0,-0.6546,-0.6538,-0.6556,-0.6555,-0.6562,-0.656,-0.6562,-0.6585,-0.6585,-0.6596,-0.6589,-0.659,-0.6593,-0.659,-0.6605,-0.6608,-0.6616,-0.6593,-0.6617,-0.661,-0.6615,-0.6615,-0.6614,-0.6587,-0.6587,-0.6586,-0.6585,0,-0.6488,-0.6498,-0.6499,-0.6504,-0.6505,-0.651,-0.6516,-0.6514,-0.6539,-0.6538,-0.6537,-0.6539,-0.6542,-0.6543,-0.6548,-0.6556,-0.6574,-0.6578,-0.6573,-0.6566,-0.6559,-0.6562,-0.6637,-0.6579,-0.658,-0.658,-0.658,-0.6581,-0.6443,-0.6437,-0.6448,-0.6449,-0.6456,-0.6461,-0.6457,-0.647,-0.647,-0.6475,-0.6488,-0.6485,-0.6496,-0.6505,-0.651,-0.6508,-0.652,-0.6514,-0.6512,-0.651,-0.6506,-0.656,-0.6509,-0.651,-0.651,-0.651,-0.651,0,-0.6386,-0.6394,-0.6395,-0.6403,-0.6403,-0.6421,-0.6429,-0.6427,-0.6425,-0.6433,-0.6434,-0.6434,-0.6435,-0.645,-0.6452,-0.6448,-0.6456,-0.6447,-0.6448,-0.6449,-0.6496,-0.6499,-0.644,-0.644,-0.6441,-0.6441,-0.6441,-0.6441,-0.6356,-0.6346,-0.6357,-0.6351,-0.636,-0.6358,-0.636,-0.6365,-0.6372,-0.637,-0.6371,-0.6381,-0.6392,-0.6395,-0.6396,-0.6401,-0.64,-0.6388,-0.6396,-0.6439,-0.6446,-0.6452,-0.6455,-0.6388,-0.6388,-0.6349,-0.6349,-0.6348]}]]